CW8261 Weather Reports


Display with metric or nautical units.
time (UTC)temp
F
wind
direction
speed
MPH
gust
MPH
rain 1hr
in
rain 24hr
in
rain mn
in
humidity
%
barometer
mb
20260504151021 71 199 2.0 4.0 0.00 0.01 0.01 59 1008.3
20260504141037 68 201 3.0 5.0 0.00 0.01 0.01 66 1008.3
20260504081017 60 178 3.0 5.0 0.00 0.01 0.01 74 1009.4
20260504050018 64 218 3.0 7.0 0.00 0.00 0.00 61 1008.6
20260504045020 63 215 3.0 7.0 0.00 0.00 0.00 62 1008.7
20260504044021 62 197 4.0 11.0 0.00 0.00 0.00 64 1009.3
20260504043020 62 200 1.0 3.0 0.00 0.00 0.00 63 1009.4
20260504042018 62 204 2.0 4.0 0.00 0.00 0.00 64 1009.5
20260504041039 62 199 2.0 3.0 0.00 0.00 0.00 64 1009.8
20260504040039 62 202 3.0 4.0 0.00 0.00 0.00 63 1009.8
20260504035018 62 199 3.0 4.0 0.00 0.00 0.00 63 1009.8
20260504034018 63 201 3.0 4.0 0.00 0.00 0.00 62 1009.9
20260504033018 63 200 3.0 7.0 0.00 0.00 0.00 61 1009.9
20260504032019 63 203 3.0 5.0 0.00 0.00 0.00 61 1009.9
20260504031019 63 201 3.0 7.0 0.00 0.00 0.00 61 1009.8
20260504030019 63 203 4.0 6.0 0.00 0.00 0.00 61 1009.8
20260504025021 63 201 4.0 5.0 0.00 0.00 0.00 61 1009.8
20260504024102 63 203 3.0 5.0 0.00 0.00 0.00 61 1010.0
20260504023021 64 202 3.0 4.0 0.00 0.00 0.00 60 1010.0
20260504022021 64 207 3.0 6.0 0.00 0.00 0.00 59 1009.9
20260504021017 65 205 3.0 5.0 0.00 0.00 0.00 58 1009.7
20260504020018 65 205 3.0 6.0 0.00 0.00 0.00 57 1009.8
20260504015020 65 204 4.0 6.0 0.00 0.00 0.00 56 1009.5
20260504014020 66 204 4.0 7.0 0.00 0.00 0.00 56 1009.5
20260504013038 66 201 4.0 6.0 0.00 0.00 0.00 55 1009.6
20260504012018 66 202 4.0 8.0 0.00 0.00 0.00 55 1009.5
20260504011018 67 198 4.0 6.0 0.00 0.00 0.00 53 1009.5
20260504010018 68 197 3.0 4.0 0.00 0.00 0.00 51 1009.5
20260504005018 68 203 3.0 6.0 0.00 0.00 0.00 49 1009.5
20260504004019 68 209 3.0 5.0 0.00 0.00 0.00 49 1009.5
20260504003019 69 211 3.0 6.0 0.00 0.00 0.00 49 1009.6
20260504002019 69 213 3.0 5.0 0.00 0.00 0.00 48 1009.6
20260504001019 70 205 3.0 6.0 0.00 0.00 0.00 48 1009.5
20260504000020 71 197 4.0 11.0 0.00 0.00 0.00 47 1009.7
20260503235021 71 193 4.0 9.0 0.00 0.00 0.00 46 1009.8
20260503234018 72 190 6.0 9.0 0.00 0.00 0.00 44 1010.0
20260503233041 72 190 5.0 9.0 0.00 0.00 0.00 44 1010.0
20260503232020 72 196 4.0 8.0 0.00 0.00 0.00 43 1010.0
20260503231020 72 195 4.0 8.0 0.00 0.00 0.00 43 1010.0
20260503230037 72 198 4.0 7.0 0.00 0.00 0.00 42 1010.2
20260503225018 73 198 3.0 7.0 0.00 0.00 0.00 42 1010.3
20260503224019 73 202 3.0 9.0 0.00 0.00 0.00 42 1010.4
20260503223021 73 207 3.0 6.0 0.00 0.00 0.00 42 1010.4
20260503222021 72 207 3.0 6.0 0.00 0.00 0.00 43 1010.4
20260503221018 72 197 4.0 7.0 0.00 0.00 0.00 43 1010.6
20260503220018 72 191 5.0 10.0 0.00 0.00 0.00 42 1010.5
20260503215019 72 199 5.0 8.0 0.00 0.00 0.00 43 1010.6
20260503214019 72 193 4.0 9.0 0.00 0.00 0.00 43 1010.7
20260503213040 71 182 6.0 12.0 0.00 0.00 0.00 43 1010.8
20260503212039 71 183 7.0 12.0 0.00 0.00 0.00 43 1010.9
20260503211019 70 184 7.0 12.0 0.00 0.00 0.00 43 1011.2
20260503210019 70 180 8.0 17.0 0.00 0.00 0.00 44 1011.3
20260503205020 70 185 7.0 11.0 0.00 0.00 0.00 45 1011.7
20260503204017 70 206 5.0 9.0 0.00 0.00 0.00 45 1011.9
20260503203018 70 207 5.0 12.0 0.00 0.00 0.00 44 1012.0
20260503202021 69 199 4.0 8.0 0.00 0.00 0.00 45 1012.1
20260503201040 69 200 5.0 10.0 0.00 0.00 0.00 47 1012.5
20260503200017 69 200 5.0 8.0 0.00 0.00 0.00 46 1012.8
20260503195018 69 204 5.0 10.0 0.00 0.00 0.00 45 1013.1
20260503194018 68 203 5.0 10.0 0.00 0.00 0.00 46 1013.4
20260503193021 68 206 4.0 12.0 0.00 0.00 0.00 48 1013.7
20260503192018 68 198 5.0 13.0 0.00 0.00 0.00 48 1013.9
20260503191018 67 206 4.0 9.0 0.00 0.00 0.00 48 1014.2
20260503190019 67 203 4.0 8.0 0.00 0.00 0.00 49 1014.4
20260503185020 66 212 5.0 10.0 0.00 0.00 0.00 49 1014.7
20260503184020 66 204 6.0 9.0 0.00 0.00 0.00 49 1015.1
20260503183017 66 201 4.0 8.0 0.00 0.00 0.00 50 1015.3
20260503182019 65 201 6.0 9.0 0.00 0.00 0.00 49 1015.5
20260503181020 65 213 5.0 9.0 0.00 0.00 0.00 49 1015.8
20260503180020 65 200 5.0 10.0 0.00 0.00 0.00 50 1015.9
20260503175018 65 204 4.0 9.0 0.00 0.00 0.00 49 1016.4
20260503174018 64 213 3.0 6.0 0.00 0.00 0.00 52 1016.6
20260503173038 64 214 5.0 9.0 0.00 0.00 0.00 49 1016.9
20260503172038 64 207 4.0 8.0 0.00 0.00 0.00 51 1017.1
20260503171021 63 207 4.0 9.0 0.00 0.00 0.00 51 1017.3